Theta_e
314 313 317 317 317 318 318 321 320 318 317 315 314 314 313 312 312 313 314 315 315 315 314 314 314 314 314 314 316 320 318 318 318 317 316 315 313 311 309 308 308 308 308 309
313 314 314 315 317 316 319 321 321 318 315 316 316 316 315 313 312 312 313 314 315 315 314 313 313 313 314 314 315 318 317 316 316 316 315 314 312 310 308 307 307 308 308 308
314 314 314 315 315 316 315 318 317 318 315 314 313 313 313 313 314 314 314 314 314 315 315 314 313 313 314 314 315 316 316 316 315 315 314 313 312 311 309 307 307 307 307 307
313 313 314 314 315 314 316 314 314 318 316 314 313 314 312 313 313 312 312 312 313 314 314 315 313 313 314 314 314 315 315 315 315 314 313 313 311 310 308 307 307 307 307 307
313 312 314 314 314 313 314 313 314 314 315 315 314 314 313 312 314 313 313 313 313 314 314 315 314 313 313 313 314 314 314 314 314 313 311 311 310 309 307 307 307 307 306 305
312 311 311 312 312 312 312 313 312 311 312 308 313 312 311 312 314 315 314 314 314 314 314 314 314 313 312 312 313 313 313 313 313 313 311 311 309 309 308 307 307 306 306 304
311 311 310 311 313 312 312 311 311 310 309 313 312 314 313 312 311 311 312 315 315 314 314 314 314 313 312 311 312 312 313 313 312 312 311 310 309 308 307 307 307 306 305 304
312 313 310 310 311 312 311 311 312 313 315 315 312 315 314 310 310 312 312 313 315 314 313 314 314 313 312 311 310 311 312 312 311 310 310 309 309 308 307 307 306 305 304 303
309 310 308 309 310 311 312 312 310 312 307 311 311 309 308 308 307 308 310 311 312 313 313 313 313 313 312 311 310 310 310 310 309 309 309 308 307 307 306 306 305 304 304 303
307 309 308 310 310 310 311 310 313 310 310 312 311 310 312 310 311 308 306 308 311 312 312 312 312 312 311 310 309 308 308 308 308 308 307 307 306 306 306 305 304 304 303 301
306 307 307 309 309 310 311 311 311 310 309 314 313 310 306 309 307 308 306 309 311 312 312 313 312 312 311 310 309 308 307 307 307 306 306 306 305 305 305 304 303 302 301 298
305 307 306 306 306 307 309 310 310 312 311 308 311 312 308 305 307 307 308 310 310 312 312 312 312 312 311 309 308 308 307 306 306 305 305 304 304 304 304 304 303 302 299 295
305 302 300 305 302 305 308 308 309 310 309 312 312 311 305 306 306 307 307 309 309 311 311 311 311 310 310 309 307 307 306 305 305 304 304 303 303 303 303 303 302 300 299 294
307 305 305 306 303 305 308 308 308 310 312 313 312 311 310 307 306 306 307 308 309 310 311 310 310 309 309 307 306 305 305 305 305 304 303 303 303 303 302 301 300 299 295 291
307 301 302 305 305 306 306 306 306 308 310 312 311 310 310 310 308 309 311 311 309 308 309 309 310 309 308 307 306 305 304 303 304 304 303 302 302 302 300 298 297 296 291 290
303 308 305 307 306 305 306 306 307 307 307 306 307 308 309 310 310 308 310 310 310 310 310 309 309 309 309 309 308 306 304 303 303 303 304 303 302 300 298 297 295 292 289 289
302 304 304 306 303 304 307 306 306 306 306 306 306 306 305 305 306 308 309 310 310 310 311 311 310 311 311 311 310 308 306 304 303 303 302 302 301 299 296 295 292 290 289 288
299 299 299 299 292 302 303 302 303 305 305 305 305 305 305 306 306 306 306 307 308 308 308 309 309 310 310 310 310 308 305 304 303 303 302 301 300 298 296 294 291 289 288 288
299 299 293 300 300 301 300 299 303 304 305 304 304 304 305 305 305 304 305 304 304 304 304 305 305 306 306 307 308 308 306 304 302 302 303 301 300 298 296 293 290 288 288 287
296 299 293 287 290 292 299 299 300 301 301 301 303 303 303 302 303 303 303 301 302 302 303 304 305 305 305 306 305 306 305 304 302 302 303 301 300 298 297 294 291 288 287 287
295 296 298 297 295 290 294 296 299 297 298 300 302 301 301 300 300 301 302 300 300 301 303 303 304 305 305 305 304 304 303 303 305 302 300 299 299 297 295 293 290 288 287 286
289 292 292 294 294 293 295 296 296 296 301 300 299 298 298 297 297 298 298 298 298 299 301 301 303 304 305 304 304 304 303 305 301 299 299 298 298 296 293 290 288 287 286 286
287 290 290 292 293 294 298 301 300 299 296 295 295 296 297 297 297 298 297 298 299 301 300 296 298 303 304 303 303 304 305 302 299 296 295 296 297 295 293 290 287 286 286 286
286 291 290 290 293 293 294 295 295 295 295 296 296 296 296 296 297 297 298 299 301 297 295 295 299 301 302 303 303 303 301 300 299 297 295 294 294 294 292 289 287 286 286 286
291 289 288 292 294 294 295 295 295 295 295 295 295 294 296 298 298 297 299 301 298 294 293 297 299 300 301 302 302 301 300 298 297 295 293 292 292 291 292 289 287 286 286 287
291 291 291 292 293 293 293 293 293 293 293 293 293 292 292 292 292 292 293 293 293 294 295 296 299 301 301 301 301 300 299 297 295 292 291 291 291 290 289 288 286 284 285 285
Wind_Speed
3 5 4 7 4 3 4 3 3 3 1 3 6 7 7 16 19 22 24 28 28 29 24 24 23 21 21 21 21 22 21 19 19 17 16 14 12 9 7 5 5 4 4 5
5 1 2 4 2 4 3 2 1 1 2 3 6 10 11 14 20 29 31 35 36 32 27 25 24 22 20 19 21 24 23 20 19 19 16 12 13 11 9 6 6 5 6 6
3 2 2 4 3 3 1 2 3 2 1 2 5 8 6 8 25 31 37 40 39 38 34 30 27 24 21 22 23 23 23 22 21 20 17 17 17 15 12 10 8 7 7 6
2 3 3 3 2 3 1 4 2 4 2 3 2 5 6 4 7 13 27 33 39 39 36 31 28 25 26 24 22 22 23 23 22 21 21 20 17 17 14 12 11 9 8 6
3 1 3 2 3 4 5 1 1 2 3 1 3 0 7 4 6 8 18 30 37 38 37 34 31 28 26 24 23 23 23 22 22 23 21 18 17 14 14 14 13 11 9 8
3 1 3 5 3 4 2 3 5 4 2 2 4 5 5 4 5 3 5 21 30 35 36 35 31 29 27 25 26 25 24 23 23 23 20 20 19 18 19 15 15 12 11 9
2 1 1 1 1 2 2 5 3 4 2 5 1 3 8 7 9 7 8 13 20 27 33 35 36 33 32 30 29 27 25 25 24 23 22 22 21 21 20 16 16 13 13 11
4 3 8 5 6 6 6 7 4 4 2 4 2 6 6 5 8 11 11 10 15 24 30 35 36 36 33 31 29 28 27 27 24 24 23 23 21 20 21 18 17 15 14 12
5 4 2 2 3 8 4 4 5 2 1 1 4 7 9 5 6 7 10 9 12 21 28 32 35 35 32 31 30 29 28 26 25 25 25 24 24 23 21 19 18 16 16 16
4 2 2 1 2 2 6 4 1 1 3 5 5 5 7 5 4 3 8 14 13 18 25 29 32 32 30 28 28 28 27 27 25 26 26 25 25 23 21 20 19 18 18 18
6 3 3 2 6 9 2 3 3 4 5 4 3 5 6 6 7 5 9 9 12 16 20 24 28 28 28 28 29 30 30 29 29 28 28 28 26 25 23 22 21 20 21 20
6 4 5 9 5 4 3 9 8 5 5 4 3 12 3 8 6 9 13 17 15 15 16 21 24 26 30 31 31 31 31 32 30 29 29 28 26 26 25 23 22 22 22 20
5 2 1 8 5 2 6 5 7 6 1 12 7 10 3 4 6 11 14 12 13 13 17 21 24 28 30 31 31 32 32 33 31 30 30 29 28 28 26 25 25 26 25 23
2 4 7 8 4 2 5 15 7 11 10 19 16 24 22 9 7 10 11 13 15 16 19 23 25 29 31 32 31 32 32 33 33 32 32 31 31 29 28 27 28 28 26 24
1 3 1 9 8 2 3 5 5 7 16 14 24 19 30 21 14 23 29 35 32 27 26 30 32 33 33 34 33 34 34 34 36 35 34 34 31 30 30 30 30 29 28 26
4 2 2 15 18 12 14 16 18 19 17 13 19 21 27 36 27 18 27 34 35 34 36 36 36 35 35 37 38 37 36 36 38 39 38 35 35 34 34 34 33 32 30 28
1 2 0 14 3 5 10 24 22 20 21 17 19 25 26 24 13 25 30 33 35 37 41 42 42 42 41 40 41 42 38 36 38 41 40 38 37 38 37 36 35 34 33 31
6 4 2 3 3 13 9 0 12 22 24 22 21 23 31 36 36 31 32 36 41 45 47 48 48 45 44 42 45 43 40 39 40 43 44 42 41 41 40 39 38 37 35 32
15 6 3 5 5 14 18 8 4 6 11 12 13 19 31 36 32 31 23 18 22 28 34 40 45 46 47 49 48 46 45 44 44 46 47 47 45 44 44 44 42 39 37 34
6 8 4 2 3 9 24 1 8 3 18 19 22 16 12 7 8 7 14 27 30 33 32 31 33 35 40 44 44 46 49 48 49 46 49 49 48 48 47 46 43 40 38 34
5 4 14 12 9 9 6 8 8 8 23 7 4 2 10 4 11 26 35 34 34 36 36 34 34 33 30 35 37 43 46 50 48 47 50 49 49 49 48 46 44 42 39 37
9 7 5 4 5 11 11 1 9 7 13 7 9 18 29 37 42 41 47 45 39 42 39 37 36 35 32 30 31 36 42 43 47 48 49 49 49 50 49 47 45 43 41 38
3 8 6 11 9 9 8 8 13 16 32 37 35 34 27 39 43 44 48 47 36 28 34 36 36 36 34 33 33 35 35 41 43 45 47 48 49 50 50 49 47 45 43 40
4 9 6 2 14 19 34 40 40 42 44 41 44 46 37 42 45 45 43 38 26 36 38 38 34 36 36 34 33 36 37 38 39 42 45 48 50 52 52 50 49 47 46 43
7 5 5 16 17 30 41 48 47 46 44 39 37 42 35 31 34 35 36 34 41 48 46 39 34 36 36 35 33 32 38 39 40 41 43 47 50 53 52 51 51 49 45 40
12 12 9 18 32 33 48 51 41 39 44 43 40 48 49 46 50 49 51 50 47 44 40 39 36 36 39 37 34 31 36 38 40 41 43 47 50 53 53 52 50 46 42 37
Wind_Direction
41 81 160 193 205 110 140 150 182 258 289 178 248 268 247 218 221 228 226 222 224 231 228 226 228 227 224 219 215 209 220 225 234 238 241 254 268 275 268 245 241 226 228 247
26 59 247 201 260 87 117 102 261 330 344 186 279 266 254 200 221 224 222 223 229 232 227 227 226 226 224 221 211 207 213 219 232 239 245 252 254 257 250 244 246 242 256 263
108 328 167 107 105 88 352 186 224 248 319 320 334 281 256 241 223 226 232 236 234 230 226 225 225 227 222 217 212 210 212 214 224 231 237 240 242 249 252 242 242 245 251 256
256 309 114 140 116 107 285 272 148 154 121 241 81 286 293 268 251 222 228 226 230 230 230 231 227 224 223 217 214 213 214 218 223 229 233 238 243 259 250 242 247 247 248 250
264 2 122 102 198 158 236 198 185 194 222 318 231 168 272 291 271 243 233 230 232 234 233 229 229 231 228 220 220 218 219 221 224 230 239 232 236 234 238 241 243 245 249 246
199 95 145 201 219 181 216 61 26 27 61 341 230 166 278 242 220 280 267 241 238 236 233 231 232 230 228 224 223 223 221 222 225 231 231 228 226 230 236 243 238 244 247 237
29 275 326 133 119 39 123 70 326 343 335 236 188 189 255 268 260 234 267 272 244 238 233 228 226 225 226 227 227 226 223 224 227 231 233 228 226 229 239 244 237 240 239 231
174 296 183 190 177 186 198 166 181 245 241 288 90 238 250 243 304 269 287 286 257 237 233 231 228 227 228 230 229 229 227 225 227 230 232 234 238 241 245 236 234 236 234 230
168 257 294 184 146 153 211 185 183 344 116 303 239 282 290 304 271 252 263 269 257 238 233 230 227 230 232 233 235 236 232 228 227 229 230 231 233 235 235 234 234 234 232 221
206 261 201 269 154 221 166 163 153 6 260 255 267 262 238 281 303 263 249 251 252 237 231 230 230 231 233 236 238 239 236 236 233 231 229 230 230 229 229 233 236 236 230 218
168 159 266 138 206 182 158 208 208 177 185 217 283 260 222 252 227 249 257 242 246 235 233 233 235 236 237 238 238 241 239 234 231 230 229 230 229 228 229 230 230 227 222 215
208 188 220 228 254 244 239 222 190 194 226 233 225 260 258 247 243 229 259 284 245 229 231 233 235 236 235 238 239 241 239 236 234 233 232 231 229 229 228 229 226 224 217 217
191 239 2 324 338 322 224 204 226 250 124 238 233 264 331 289 282 260 268 262 250 234 233 234 236 238 241 242 242 241 239 238 236 234 233 231 230 229 229 226 220 213 211 213
208 196 184 213 196 154 204 233 233 226 242 250 242 261 253 260 283 286 281 276 257 251 258 247 244 247 247 246 245 244 241 238 236 234 232 231 231 231 230 225 217 213 212 211
48 216 249 258 261 265 251 259 260 242 246 242 255 248 267 256 254 263 274 279 273 256 255 257 255 253 253 250 248 246 244 241 236 233 232 232 231 230 226 219 215 214 212 211
15 256 254 265 271 262 263 261 243 240 250 261 259 265 257 273 273 273 266 268 273 281 278 272 266 262 260 258 254 250 248 242 235 234 233 231 228 226 222 217 215 214 213 213
130 247 198 267 16 0 260 236 248 250 249 242 250 253 276 281 264 260 264 271 273 274 277 278 275 273 271 265 260 254 250 245 238 236 233 230 226 223 220 217 215 215 215 215
170 184 196 256 51 260 255 319 241 243 251 252 254 264 266 270 279 277 277 276 277 282 283 283 283 277 271 268 261 256 249 245 239 235 232 229 225 222 220 217 217 216 216 217
211 193 253 241 223 292 297 276 230 183 274 263 252 255 266 276 286 282 295 303 313 307 302 297 295 292 285 274 270 259 250 245 239 234 233 229 225 221 218 217 217 216 216 216
205 223 161 63 214 251 272 299 264 17 281 254 258 257 258 311 266 283 327 327 325 322 319 314 306 290 285 285 273 258 250 244 239 237 236 229 225 222 220 218 217 217 217 219
148 199 224 233 245 275 261 207 210 179 256 46 172 264 300 277 258 294 306 314 316 320 323 323 318 311 295 287 278 263 253 248 250 242 236 230 226 223 221 219 217 217 216 217
166 175 202 214 239 273 220 137 182 223 314 318 297 299 299 290 290 291 297 298 304 303 312 318 321 315 306 291 280 268 261 263 249 241 236 230 226 223 221 219 218 216 216 217
272 193 193 191 214 228 223 257 219 283 297 292 294 296 296 295 292 293 294 296 298 293 299 309 313 307 304 291 277 268 274 258 250 242 238 231 226 223 221 219 218 216 216 217
280 210 234 301 249 264 276 282 279 282 282 285 287 291 294 289 292 289 289 289 284 306 310 307 298 297 299 293 281 278 265 257 250 244 238 232 226 221 220 219 219 218 217 216
216 142 228 257 279 281 272 268 271 278 281 282 284 290 289 288 290 296 294 287 292 300 303 300 286 289 292 287 280 272 263 255 249 243 236 230 226 223 219 219 220 219 222 224
214 240 248 263 262 253 269 269 272 278 278 283 284 285 285 283 284 286 286 286 289 291 293 295 288 286 289 285 277 267 260 254 248 240 232 229 224 221 219 218 217 219 223 224